Location: Evergreen Manor
(41.4083°N, 81.4939°W)
Time: 19:44:32
(UTC+00:00)

Cosmos 1733 Rocket - Pass Details

Date: 11 December 2019
Orbit: 604 x 627 km, 82.5° (Epoch: 27 January)

Event Time Altitude Azimuth Distance (km) Brightness Sun altitude
Rises 11:07:59 0° 175° (S) 2,844 6.7 -17.0°
Reaches altitude 10° 11:10:13 10° 171° (S) 1,945 5.9 -16.6°
Maximum altitude 11:14:25 54° 94° (E) 737 3.8 -15.8°
Drops below altitude 10° 11:18:38 10° 17° (NNE) 1,962 5.6 -15.1°
Sets 11:20:54 0° 13° (NNE) 2,872 6.4 -14.7°
